Location: Newark
(55.5030°N, 22.7200°E)
Time: 09:17:33
(UTC+00:00)

Transit 2A Rocket - All Passes

Search period start: 30 May 2020 00:00
Search period end: 09 June 2020 00:00
Orbit: 585 x 918 km, 66.7° (Epoch: 29 May)

Date Brightness Start Highest point End Pass type
(mag) Time Alt. Az. Time Alt. Az. Time Alt. Az.
30 May - 01:23:54 10° WNW 01:28:44 27° N 01:33:49 10° ENE daylight
30 May - 03:07:25 10° NW 03:12:51 38° NNE 03:18:31 10° E daylight
30 May - 04:50:10 10° NW 04:56:11 89° NE 05:02:21 10° SE daylight
30 May - 06:33:22 10° WNW 06:38:18 27° WSW 06:43:17 10° SSW daylight
30 May - 19:35:21 10° SE 19:37:33 13° ESE 19:39:50 10° ENE daylight
30 May - 21:13:51 10° SSW 21:18:55 57° SE 21:24:30 10° NE visible
30 May - 22:56:35 10° WSW 23:01:45 47° NNW 23:07:25 10° NE visible
31 May - 00:40:53 10° WNW 00:45:42 28° N 00:50:48 10° NE visible
31 May - 02:24:42 10° NW 02:29:55 33° NNE 02:35:22 10° E daylight
31 May - 04:07:34 10° NW 04:13:31 68° NE 04:19:39 10° SE daylight
31 May - 05:50:28 10° NW 05:56:00 38° WSW 06:01:35 10° S daylight
31 May - 20:31:45 10° S 20:36:32 39° ESE 20:41:45 10° NE visible
31 May - 22:13:43 10° WSW 22:18:59 61° NW 22:24:47 10° NE visible
31 May - 23:57:49 10° WNW 00:02:42 30° NNW 00:07:55 10° NE visible
01 Jun - 01:41:55 10° NW 01:46:56 29° NNE 01:52:12 10° ENE daylight
01 Jun - 03:24:57 10° NW 03:30:46 53° NE 03:36:47 10° ESE daylight
01 Jun - 05:07:43 10° NW 05:13:35 54° WSW 05:19:32 10° SSE daylight
01 Jun - 06:52:12 10° WNW 06:55:06 14° WSW 06:58:01 10° SW daylight
01 Jun - 19:50:01 10° SSE 19:54:15 26° ESE 19:58:50 10° ENE visible
01 Jun - 21:31:02 10° SW 21:36:18 82° NW 21:42:09 10° NE visible
01 Jun - 23:14:43 10° W 23:19:44 34° NNW 23:25:07 10° NE visible
02 Jun - 00:59:01 10° NW 01:03:55 28° N 01:09:03 10° ENE visible
02 Jun - 02:42:20 10° NW 02:47:57 43° NNE 02:53:45 10° E daylight
02 Jun - 04:25:04 10° NW 04:31:05 76° SW 04:37:13 10° SSE daylight
02 Jun - 06:08:36 10° WNW 06:12:58 21° WSW 06:17:21 10° SSW daylight
02 Jun - 19:08:45 10° SE 19:12:06 17° ESE 19:15:37 10° ENE daylight
02 Jun - 20:48:31 10° SSW 20:53:44 73° SE 20:59:30 10° NE visible
02 Jun - 22:31:41 10° W 22:36:50 41° NNW 22:42:24 10° NE visible
03 Jun - 00:16:02 10° WNW 00:20:53 28° N 00:26:00 10° NE visible
03 Jun - 01:59:40 10° NW 02:05:03 36° NNE 02:10:39 10° E daylight
03 Jun - 03:42:27 10° NW 03:48:29 82° NE 03:54:39 10° SE daylight
03 Jun - 05:25:32 10° NW 05:30:44 30° WSW 05:35:57 10° S daylight
03 Jun - 18:28:49 10° ESE 18:30:03 11° E 18:31:17 10° E daylight
03 Jun - 20:06:15 10° SSW 20:11:16 50° ESE 20:16:48 10° NE visible
03 Jun - 21:48:44 10° WSW 21:53:59 51° NW 21:59:44 10° NE visible
03 Jun - 23:32:59 10° WNW 23:37:52 29° N 23:43:02 10° NE visible
04 Jun - 01:16:55 10° NW 01:22:06 31° NNE 01:27:30 10° ENE daylight
04 Jun - 02:59:51 10° NW 03:05:47 62° NE 03:11:54 10° ESE daylight
04 Jun - 04:42:42 10° NW 04:48:23 43° WSW 04:54:07 10° S daylight
04 Jun - 19:24:15 10° S 19:28:56 34° ESE 19:34:00 10° NE daylight
04 Jun - 21:05:56 10° SW 21:11:15 67° NW 21:17:06 10° NE visible
04 Jun - 22:49:54 10° W 22:54:52 32° NNW 23:00:10 10° NE visible
05 Jun - 00:34:05 10° NW 00:39:06 29° N 00:44:20 10° ENE visible
05 Jun - 02:17:15 10° NW 02:23:01 49° NNE 02:28:59 10° ESE daylight
05 Jun - 04:00:00 10° NW 04:05:56 61° SW 04:11:58 10° SSE daylight
05 Jun - 05:44:02 10° WNW 05:47:35 16° WSW 05:51:08 10° SW daylight
05 Jun - 18:42:38 10° SSE 18:46:42 23° ESE 18:51:01 10° ENE daylight
05 Jun - 20:23:17 10° SW 20:28:36 90° E 20:34:28 10° NE visible
05 Jun - 22:06:49 10° W 22:11:55 36° NNW 22:17:24 10° NE visible
05 Jun - 23:51:09 10° WNW 23:56:04 28° N 00:01:14 10° ENE visible
06 Jun - 01:34:36 10° NW 01:40:10 40° NNE 01:45:55 10° E daylight
06 Jun - 03:17:22 10° NW 03:23:24 84° SW 03:29:34 10° SE daylight
06 Jun - 05:00:42 10° WNW 05:05:25 24° WSW 05:10:09 10° SSW daylight
06 Jun - 18:01:39 10° SE 18:04:33 15° ESE 18:07:37 10° ENE daylight
06 Jun - 19:40:51 10° SSW 19:46:03 65° SE 19:51:48 10° NE daylight
06 Jun - 21:23:48 10° WSW 21:29:02 44° NNW 21:34:43 10° NE visible
06 Jun - 23:08:09 10° WNW 23:13:03 28° N 23:18:12 10° NE visible
07 Jun - 00:51:53 10° NW 00:57:15 34° NNE 01:02:48 10° E visible
07 Jun - 02:34:45 10° NW 02:40:47 74° NE 02:46:56 10° SE daylight
07 Jun - 04:17:45 10° NW 04:23:09 34° WSW 04:28:34 10° S daylight
07 Jun - 18:58:40 10° S 19:03:38 44° ESE 19:09:04 10° NE daylight
07 Jun - 20:40:54 10° WSW 20:46:13 56° NW 20:52:03 10° NE visible
07 Jun - 22:25:04 10° WNW 22:30:02 30° NNW 22:35:16 10° NE visible
08 Jun - 00:09:07 10° NW 00:14:17 30° NNE 00:19:38 10° ENE visible
08 Jun - 01:52:09 10° NW 01:58:03 57° NE 02:04:07 10° ESE daylight
08 Jun - 03:34:57 10° NW 03:40:46 49° WSW 03:46:37 10° SSE daylight
08 Jun - 05:19:58 10° W 05:22:09 12° W 05:24:18 10° WSW daylight
08 Jun - 18:16:48 10° S 18:21:20 30° ESE 18:26:13 10° NE daylight
08 Jun - 19:58:08 10° SW 20:03:30 75° NW 20:09:25 10° NE visible
08 Jun - 21:41:59 10° W 21:47:02 33° NNW 21:52:26 10° NE visible
08 Jun - 23:26:15 10° NW 23:31:16 28° N 23:36:29 10° ENE visible
